Content
SEND FEEDBACK

Daily
Averages
Monthly
Summary
United States of America

FOUNTAIN, U.S. VIRGIN ISLANDS


Home > North America > United States > U.S. Virgin Islands
Elevation: 35 feet     Latitude: 17 45N     Longitude: 064 50W

WEATHER
 
SELECT A DAY
Number of Records: 155,444;   Date Range: 7/1/96 - 10/21/14
 
SHARE

PRINT THIS DATA

[ ← Previous Day ]
WEATHER ALMANAC - JANUARY 31, 2013
[ Next Day → ]
[ °C ]   °F
Weather ElementAverageHighLow
Temperature77.1 °F82.9 °F (11:53 am)71.1 °F (3:53 am)
Dewpoint69.3 °F71.1 °F (9:53 am)66.9 °F (2:53 pm)
Humidity77.6 %93 % (3:53 am)58 % (2:53 pm)
Barometer30.05 in30.10 in (10:53 am)30.02 in (3:53 am)
Wind Speed11.7 mph18.4 mph (12:53 pm)
Wind Gust24.2 mph (12:53 pm)
Weather ElementAverage
Visibility9.9 mi
Wind DirectionENE (81.3 °)

Weather ElementTotal
Precipitation0.03 in
Cooling Degree Days12 (Base 65)
Growing Degree Days27 (Base 50)
Averaged from 24 records on January 31, 2013
WEATHER CONDITIONS BREAKOUT
WIND DIRECTION BREAKOUT
WEATHER BY HOUR - JANUARY 31, 2013
[ °C ]   °F
Local TimeTemperatureDewpointHumidityBarometerVisibilityWind DirectionWind SpeedGust SpeedPrecipitationEventsConditions
1:53 AM72.0 °F69.1 °F91 %30.05 in10.0 miENE (60°)6.9 mphClear
2:53 AM73.0 °F70.0 °F90 %30.03 in8.0 miEast (80°)8.1 mph0.00 inRainLight Rain
3:53 AM71.1 °F69.1 °F93 %30.02 in10.0 miNE (50°)5.8 mph0.00 inPartly Cloudy
4:53 AM72.0 °F70.0 °F93 %30.02 in10.0 miENE (60°)6.9 mph0.03 inMostly Cloudy
5:53 AM72.0 °F69.1 °F91 %30.03 in10.0 miENE (70°)6.9 mphScattered Clouds
6:53 AM72.0 °F69.1 °F91 %30.04 in10.0 miENE (70°)9.2 mphPartly Cloudy
7:53 AM75.0 °F70.0 °F84 %30.06 in10.0 miEast (80°)10.4 mphScattered Clouds
8:53 AM78.1 °F70.0 °F76 %30.07 in10.0 miEast (90°)17.3 mphPartly Cloudy
9:53 AM79.0 °F71.1 °F77 %30.09 in10.0 miEast (100°)17.3 mph0.00 inPartly Cloudy
10:53 AM82.0 °F69.1 °F65 %30.10 in10.0 miEast (80°)17.3 mph0.00 inPartly Cloudy
11:53 AM82.9 °F69.1 °F63 %30.09 in10.0 miESE (110°)16.1 mphClear
12:53 PM82.9 °F68.0 °F60 %30.06 in10.0 miESE (110°)18.4 mph24.2 mphClear
1:53 PM82.9 °F69.1 °F63 %30.04 in10.0 miESE (120°)15.0 mphPartly Cloudy
2:53 PM82.9 °F66.9 °F58 %30.03 in10.0 miEast (100°)13.8 mphPartly Cloudy
3:53 PM81.0 °F69.1 °F67 %30.02 in10.0 miESE (110°)18.4 mphScattered Clouds
4:26 PM80.6 °F69.8 °F70 %30.02 in10.0 miEast (100°)17.3 mphPartly Cloudy
4:53 PM81.0 °F69.1 °F67 %30.02 in10.0 miEast (90°)17.3 mphPartly Cloudy
5:53 PM78.1 °F69.1 °F74 %30.02 in10.0 miEast (90°)13.8 mphPartly Cloudy
6:53 PM77.0 °F69.1 °F76 %30.03 in10.0 miENE (70°)10.4 mphScattered Clouds
7:53 PM75.9 °F69.1 °F79 %30.04 in10.0 miENE (60°)6.9 mphPartly Cloudy
8:53 PM75.0 °F69.1 °F82 %30.06 in10.0 miENE (70°)8.1 mphClear
9:53 PM75.0 °F70.0 °F84 %30.06 in10.0 miENE (60°)6.9 mphClear
10:53 PM75.0 °F70.0 °F84 %30.06 in10.0 miENE (60°)6.9 mph0.00 inClear
11:53 PM75.0 °F70.0 °F84 %30.05 in10.0 miENE (60°)5.8 mphClear
Hourly data recorded from TISX, located miles away from Fountain, U.S. Virgin Islands







STORIES FROM OUR PARTNERS